Location: Detroit
(42.3310°N, 83.0460°W)
Time: 23:01:18
(UTC-04:00)

Envisat - Visible Passes

Search period start: 21 March 2023 00:00
Search period end: 31 March 2023 00:00
Orbit: 763 x 765 km, 98.2° (Epoch: 21 March)

Date Brightness Start Highest point End Pass type
(mag) Time Alt. Az. Time Alt. Az. Time Alt. Az.
21 Mar 4.7 04:45:49 10° NE 04:50:11 28° E 04:53:03 17° SE visible
21 Mar 3.6 06:24:37 10° N 06:29:11 35° WNW 06:33:14 13° SW visible
22 Mar 5.7 04:10:31 10° ENE 04:12:43 13° E 04:14:56 10° ESE visible
22 Mar 2.9 05:47:11 10° N 05:52:16 76° WNW 05:55:52 20° SSW visible
23 Mar 3.8 05:10:14 10° NNE 05:15:10 49° E 05:18:30 20° SSE visible
23 Mar 4.3 06:50:01 10° NNW 06:53:48 21° WNW 06:57:34 10° WSW visible
24 Mar 5.1 04:33:55 10° NE 04:37:51 22° E 04:41:08 13° SE visible
24 Mar 3.3 06:12:12 10° N 06:17:01 44° WNW 06:21:20 13° SW visible
25 Mar 3.0 05:34:56 10° NNE 05:40:02 84° ESE 05:43:57 17° SSW visible
26 Mar 4.3 04:58:08 10° NNE 05:02:51 38° E 05:06:35 15° SSE visible
26 Mar 4.0 06:37:27 10° N 06:41:40 27° WNW 06:45:52 10° WSW visible
27 Mar 5.4 04:22:11 10° NE 04:25:28 17° E 04:28:45 10° SE visible
27 Mar 3.1 05:59:50 10° N 06:04:50 57° WNW 06:09:23 12° SSW visible
28 Mar 3.3 05:22:42 10° NNE 05:27:46 65° ESE 05:32:01 15° S visible
29 Mar 4.7 04:46:07 10° NE 04:50:32 29° E 04:54:38 11° SSE visible
29 Mar 3.7 06:24:57 10° N 06:29:31 34° WNW 06:34:03 10° SW visible
30 Mar 5.7 04:10:43 10° ENE 04:13:04 13° E 04:15:24 10° ESE visible
30 Mar 2.9 05:47:31 10° N 05:52:36 74° WNW 05:57:26 11° SSW visible
